Location: Tel Aviv
(32.0670°N, 34.7670°E)
Time: 03:14:25
(UTC+03:00)

Tiros 1 - Pass Details

Date: 23 January 2022
Orbit: 629 x 663 km, 48.4° (Epoch: 26 May)

Event Time Altitude Azimuth Distance (km) Brightness Sun altitude
Rises 01:35:39 0° 301° (WNW) 2,988 - -63.7°
Reaches altitude 10° 01:39:52 10° 336° (NNW) 2,070 - -62.9°
Maximum altitude 01:41:17 11° 353° (N) 1,989 - -62.6°
Drops below altitude 10° 01:42:42 10° 11° (N) 2,065 - -62.3°
Sets 01:46:53 0° 46° (NE) 2,967 - -61.5°
